www.pogodaiklimat.ru

Погода и климат >> Архив погоды >> Гренландия >> Paamiut


ПОГОДА в Paamiut

  • Прогноз погоды в Paamiut
  • Монитор погоды в Paamiut

АРХИВ ПОГОДЫ в Paamiut

Время (UTC), дата Ветер
(напр.,м/с)
 
Видим.   Явления Облачность Т
(С)
Тd
(С)
f
(%)
Тe
(С)
Тes
(С)
Комфортность P
(гПа)
Po
(гПа)
Тmin
(С)
Tmax
(С)
R
(мм)
R24
(мм)
S
(см)
04 12.08 С 1 45 км 10/0
[]
+9.4 +6.8 84 +10 +10 1014.2 1009.6
05 12.08 СВ 2 50 км 10/0
[]
+9.9 +6.9 82 +9 +9 1013.6 1009.0
06 12.08 ЮВ 1 45 км 10/0
[]
+9.2 +6.8 85 +10 +10 1013.2 1008.6 +9.2 +12.7
07 12.08 В 1 50 км 10/0
[]
+9.7 +6.9 83 +10 +10 1012.7 1008.1
08 12.08 штиль 0 50 км 10/0
[]
+9.4 +7.2 86 +9 +9 1012.4 1007.8
09 12.08 штиль 0 40 км 10/0
[]
+9.7 +7.1 84 +9 +9 1012.1 1007.5
10 12.08 штиль 0 35 км 10/0
[]
+10.8 +6.3 74 +10 +12 1011.9 1007.3
11 12.08 З 1 45 км 10/0
[]
+11.7 +4.9 63 +13 +15 1011.6 1007.0
12 12.08 СЗ 1 45 км 9/0
[]
+11.8 +4.2 60 +12 +16 1011.1 1006.5
13 12.08 СЗ 1 40 км 4/0
[]
+12.9 +3.1 51 +13 +20 1010.5 1006.0
14 12.08 СЗ 1 35 км н/о +14.3 +2.2 44 +15 +15 1010.0 1005.5
15 12.08 СЗ 4 40 км 9/0
[]
+11.9 +4.3 60 +10 +14 1010.0 1005.4
16 12.08 СЗ 4 35 км 9/0
[]
+14.3 +2.6 45 +13 +17 1009.5 1005.0
17 12.08 СЗ 2 45 км 9/0 2000 м
[]
+13.4 +1.7 45 +13 +19 1009.3 1004.8
18 12.08 З 4 45 км 9/0 2000 м
[]
+13.1 +2.1 47 +12 +15 1008.8 1004.3 +8.9 +14.6
19 12.08 З 3 40 км слаб. морось {дождь} 9/9 1500 м
[]
+12.3 +3.7 56 +11 +12 1008.9 1004.4
20 12.08 З 3 30 км слаб. ливневой дождь 9/9 1500 м
[]
+11.7 +3.4 57 +11 +11 1008.7 1004.1
21 12.08 З 3 45 км слаб. ливневой дождь 10/10 1500 м
[]
+9.8 +4.7 71 +8 +8 1008.4 1003.8
22 12.08 З 2 45 км в посл. час морось {ливн. осадки, дождь} 10/0
[]
+10.5 +4.5 66 +10 +10 1007.8 1003.2
23 12.08 З 2 50 км {ливн. осадки, дождь} 10/0
[]
+10.5 +4.9 68 +10 +10 1008.2 1003.6
00 13.08 Ю 2 40 км в посл. час морось {ливн. осадки, дождь} 10/0
[]
+9.6 +5.2 74 +8 +8 1008.4 1003.8
01 13.08 ЮЗ 2 40 км слаб. ливневой дождь 10/0 2000 м
[]
+9.5 +4.6 71 +8 +8 1008.7 1004.1
02 13.08 З 2 40 км слаб. морось 10/0
[]
+9.3 +4.9 74 +8 +8 1008.7 1004.1
03 13.08 СЗ 2 35 км слаб. дождь 10/0
[]
+9.1 +6.3 83 +8 +8 1008.4 1003.8
04 13.08 45 км слаб. ливневой дождь 10/0 2000 м
[]
+9.3 +6.5 83 1008.2 1003.6
05 13.08 45 км в посл. час осадки {ливн. осадки} 9/0
[]
+9.3 +6.5 83 1007.6 1003.0
06 13.08 С 2 50 км {ливн. осадки} 10/0
[]
+10.3 +6.1 75 +9 +9 1007.8 1003.2 +8.6 +13.9
07 13.08 С 2 45 км 10/0
[]
+10.6 +5.3 70 +10 +10 1008.1 1003.5
08 13.08 С 2 50 км в посл. час морось {ливн. осадки, дождь} 9/0
[]
+10.9 +6.0 72 +10 +10 1008.5 1003.9
09 13.08 штиль 0 45 км {ливн. осадки, дождь} 9/0
[]
+10.2 +6.6 78 +10 +10 1009.1 1004.5
10 13.08 штиль 0 45 км {ливн. осадки, дождь} 9/0
[]
+11.9 +7.2 73 +11 +13 1009.4 1004.8
11 13.08 СЗ 3 50 км в посл. час дождь {ливн. осадки} 9/9 1470 м
[]
+9.2 +6.6 84 +7 +7 1009.5 1004.9
12 13.08 Ю 2 35 км слаб. ливневой дождь 9/0 2000 м
[]
+11.2 +7.1 76 +10 +14 1010.2 1005.6
13 13.08 З 1 45 км в посл. час морось {ливн. осадки} 9/0 2000 м
[]
+10.8 +4.5 65 +12 +17 1010.8 1006.2
14 13.08 штиль 0 40 км {ливн. осадки} 10/10 1500 м
[]
+13.8 +3.6 50 +14 +14 1011.0 1006.5
15 13.08 СЗ 1 45 км {ливн. осадки} 9/0
[]
+13.8 +4.8 55 +14 +21 1011.1 1006.6
16 13.08 З 3 35 км {ливн. осадки} 9/0
[]
+12.8 +3.6 54 +12 +17 1011.4 1006.8
17 13.08 З 3 30 км {ливн. осадки} 9/0 2000 м
[]
+10.6 +5.7 72 +9 +13 1011.6 1007.0
18 13.08 З 3 30 км 9/0 2000 м
[]
+10.2 +6.8 79 +8 +11 1012.1 1007.5 +8.6 +14.4
19 13.08 З 3 45 км 9/0 2000 м
[]
+10.5 +7.1 79 +9 +11 1012.3 1007.7
20 13.08 СЗ 2 35 км 9/0 2000 м
[]
+9.5 +6.9 84 +8 +9 1012.5 1007.9
21 13.08 СЗ 4 30 км 10/0 2000 м
[]
+9.5 +6.5 82 +7 +7 1012.6 1008.0
22 13.08 СЗ 3 27 км 4/0
[]
+9.1 +6.7 85 +7 +7 1012.6 1008.0
23 13.08 СЗ 5 30 км 8/0 2000 м
[]
+8.7 +7.1 90 +5 +5 1012.8 1008.2
00 14.08 С 2 17 км 9/0 2000 м
[]
+7.8 +7.1 95 +6 +6 1013.2 1008.6
01 14.08 З 2 13 км 8/8 90 м
[]
+7.7 +7.0 95 +5 +5 1013.2 1008.6
02 14.08 З 2 9000 м 9/9 90 м
[]
+7.6 +7.0 96 +5 +5 1013.1 1008.5
03 14.08 З 2 3800 м дымка 9/9 60 м
[]
+7.6 +7.0 96 +5 +5 1013.1 1008.5
04 14.08 штиль 0 100 м туман {дымка} 10/10 60 м
[]
+7.0 +6.6 97 +6 +6 1012.9 1008.2
05 14.08 Ю 2 <100 м туман {дымка} 10/10 60 м
[]
+6.7 +6.5 99 +5 +5 1012.7 1008.0
06 14.08 ЮВ 2 100 м туман ?/? +6.6 +6.4 99 +4 +4 1012.5 1007.8 +6.5 +11.3
07 14.08 ЮВ 2 100 м туман 10/10 30 м
[]
+5.8 +5.8 100 +3 +3 1012.4 1007.7
08 14.08 штиль 0 22 км в посл. час туман н/о +5.8 +5.4 97 +5 +5 1012.5 1007.8
09 14.08 СВ 1 35 км {туман} н/о +6.6 +6.2 97 +6 +6 1012.4 1007.7
10 14.08 СЗ 2 <100 м туман 3/3 60 м
[]
+5.2 +4.8 97 +2 +4 1012.4 1007.7
11 14.08 штиль 0 40 км в посл. час туман н/о +7.0 +6.1 94 +6 +6 1011.9 1007.3
12 14.08 З 2 30 км {туман} н/о +6.8 +5.0 88 +4 +4 1012.0 1007.3
13 14.08 СЗ 2 40 км н/о +8.2 +4.4 77 +6 +6 1011.8 1007.2
14 14.08 З 2 29 км н/о +10.7 +3.9 63 +10 +10 1011.8 1007.2
15 14.08 З 3 29 км н/о +10.3 +4.0 65 +9 +9 1011.5 1006.9
16 14.08 З 4 35 км н/о +11.0 +1.9 53 +9 +9 1011.1 1006.5
17 14.08 Ю 4 23 км н/о +12.5 +3.6 55 +11 +11 1011.4 1006.8
18 14.08 Ю 6 13 км в посл. час туман {дымка} 9/9 60 м
[]
+7.9 +5.3 84 +4 +4 1011.8 1007.2 +5.1 +12.6
19 14.08 Ю 5 21 км {туман} 9/9 240 м
[]
+9.7 +5.7 76 +7 +7 1011.7 1007.1
20 14.08 Ю 4 19 км {туман} 5/5 400 м
[]
+10.1 +5.7 74 +8 +8 1011.7 1007.1
21 14.08 Ю 4 700 м дымка {туман} 8/8 90 м
[]
+7.7 +6.3 91 +4 +5 1011.9 1007.3
22 14.08 Ю 4 28 км {туман} 10/10 150 м
[]
+7.8 +5.4 85 +5 +5 1012.1 1007.5
23 14.08 Ю 5 30 км {туман} 10/10 270 м
[]
+7.7 +5.0 83 +4 +4 1012.3 1007.7
00 15.08 Ю 3 30 км 10/10 360 м
[]
+7.4 +4.3 81 +5 +5 1012.6 1008.0
01 15.08 Ю 2 30 км 10/10 400 м
[]
+7.5 +4.6 82 +6 +6 1012.9 1008.3
02 15.08 Ю 2 29 км 10/10 420 м
[]
+7.4 +4.5 82 +5 +5 1012.9 1008.3
03 15.08 Ю 2 30 км 10/10 400 м
[]
+7.3 +4.6 83 +5 +5 1013.0 1008.4
04 15.08 Ю 2 35 км 10/10 360 м
[]
+7.3 +4.4 82 +5 +5 1013.2 1008.6
05 15.08 ЮЗ 3 35 км 10/10 360 м
[]
+7.2 +4.3 82 +4 +4 1012.9 1008.3
06 15.08 ЮЗ 2 30 км 10/10 360 м
[]
+7.1 +4.4 83 +5 +5 1013.1 1008.4 +7.0 +11.1
07 15.08 СЗ 2 18 км 10/10 300 м
[]
+6.5 +4.7 88 +5 +5 1013.3 1008.6
08 15.08 СЗ 2 11 км 10/10 300 м
[]
+6.4 +4.8 89 +4 +4 1013.3 1008.6
09 15.08 СЗ 2 15 км 10/10 300 м
[]
+6.2 +5.0 92 +4 +4 1013.5 1008.8
10 15.08 СЗ 2 21 км 10/10 360 м
[]
+6.4 +5.0 91 +4 +4 1013.9 1009.2
11 15.08 СЗ 3 23 км 10/10 600 м
[]
+6.7 +4.9 88 +4 +4 1014.0 1009.3
12 15.08 СЗ 2 20 км 10/10 600 м
[]
+7.0 +4.8 86 +5 +5 1014.2 1009.5
13 15.08 СЗ 3 29 км 9/9 720 м
[]
+7.3 +4.8 84 +4 +5 1014.4 1009.7
14 15.08 СЗ 5 35 км 9/9 750 м
[]
+8.1 +5.2 82 +5 +5 1014.5 1009.9
15 15.08 СЗ 4 30 км 8/8 750 м
[]
+8.1 +5.2 82 +5 +6 1014.4 1009.8
16 15.08 СЗ 6 28 км 6/6 630 м
[]
+8.2 +4.2 76 +4 +6 1014.3 1009.7
17 15.08 СЗ 5 35 км 5/5 600 м
[]
+7.8 +5.2 84 +4 +6 1014.5 1009.9
18 15.08 СЗ 6 40 км 9/0
[]
+8.5 +5.7 83 +5 +6 1014.4 1009.8 +6.2 +8.9
19 15.08 СЗ 6 30 км 1/0
[]
+8.3 +4.9 79 +4 +6 1014.5 1009.9
20 15.08 СЗ 6 30 км н/о +7.9 +4.6 80 +4 +4 1014.9 1010.3
21 15.08 СЗ 6 35 км н/о +7.8 +5.1 83 +4 +4 1015.1 1010.5
22 15.08 СЗ 6 30 км н/о +7.2 +5.0 86 +3 +3 1015.1 1010.4
23 15.08 СЗ 5 35 км н/о +6.7 +4.9 88 +2 +2 1015.1 1010.4
00 16.08 СЗ 5 30 км н/о +6.8 +4.6 86 +3 +3 1015.3 1010.6
01 16.08 СЗ 6 35 км н/о +6.7 +4.2 84 +2 +2 1015.5 1010.8
02 16.08 СЗ 6 35 км 9/0
[]
+6.5 +4.4 86 +2 +2 1015.7 1011.0
03 16.08 СЗ 6 30 км 1/1 400 м
[]
+6.2 +4.4 88 +2 +2 1015.5 1010.8
04 16.08 СЗ 7 30 км 6/6 400 м
[]
+5.9 +4.5 91 +1 +1 1015.7 1011.0
05 16.08 СЗ 6 23 км 10/10 360 м
[]
+6.1 +4.7 91 +1 +1 1015.5 1010.8
06 16.08 СЗ 5 28 км 9/9 300 м
[]
+5.8 +4.4 91 +1 +1 1015.3 1010.6 +5.8 +8.9
07 16.08 СЗ 5 29 км 1/0
[]
+5.7 +4.5 92 +1 +1 1015.1 1010.4
08 16.08 СЗ 5 27 км 9/9 240 м
[]
+5.9 +4.8 93 +2 +2 1015.3 1010.6
09 16.08 СЗ 4 35 км 9/9 270 м
[]
+5.9 +4.3 89 +2 +2 1015.3 1010.6
10 16.08 СЗ 2 30 км 1/1 300 м
[]
+6.4 +4.4 87 +4 +5 1015.4 1010.7
11 16.08 СЗ 4 30 км н/о +6.6 +4.6 87 +3 +3 1015.3 1010.6
12 16.08 СЗ 5 30 км 1/0
[]
+6.9 +4.9 87 +3 +5 1015.1 1010.4
13 16.08 СЗ 6 35 км н/о +7.1 +4.9 86 +3 +3 1015.2 1010.5
14 16.08 СЗ 6 27 км н/о +7.6 +5.2 85 +3 +3 1015.2 1010.5
15 16.08 СЗ 5 30 км н/о +7.9 +5.7 86 +4 +4 1015.1 1010.5
16 16.08 СЗ 5 23 км н/о +8.3 +5.9 85 +5 +5 1015.1 1010.5
17 16.08 З 4 17 км 1/1 180 м
[]
+8.4 +6.2 86 +5 +11 1015.2 1010.6
18 16.08 З 4 100 м туман {дымка} ?/? +6.9 +6.3 96 +3 +3 1015.6 1010.9 +5.6 +9.0
19 16.08 З 2 100 м туман ?/? +6.6 +6.2 97 +4 +4 1015.9 1011.2
20 16.08 ЮЗ 3 200 м туман 9/9 60 м
[]
+6.6 +5.9 95 +4 +4 1016.2 1011.5
21 16.08 Ю 4 300 м туман ?/? +5.7 +5.3 97 +2 +2 1016.2 1011.5
22 16.08 Ю 3 100 м туман 10/10 60 м
[]
+5.8 +5.4 97 +2 +2 1016.5 1011.8
23 16.08 Ю 4 100 м туман 10/10 60 м
[]
+5.2 +5.0 99 +1 +1 1016.8 1012.1
00 17.08 Ю 3 100 м туман {ливн. осадки} ?/? +5.3 +5.1 99 +2 +2 1016.9 1012.2
01 17.08 Ю 3 200 м туман 9/9 60 м
[]
+5.8 +5.6 99 +2 +2 1016.9 1012.2
02 17.08 ЮВ 4 40 км в посл. час туман 9/9 120 м
[]
+6.1 +5.2 94 +2 +2 1016.6 1011.9
03 17.08 ЮВ 3 45 км {туман} 9/9 90 м
[]
+6.6 +5.0 90 +3 +3 1016.2 1011.5
04 17.08 ЮВ 3 35 км {туман} 9/0 2000 м
[]
+6.9 +5.3 90 +4 +4 1015.8 1011.1
05 17.08 Ю 2 40 км {туман} 10/10 1500 м
[]
+6.7 +5.1 90 +4 +4 1015.6 1010.9
06 17.08 ЮВ 4 40 км 10/0
[]
+6.8 +5.2 90 +3 +3 1015.3 1010.6 +5.1 +7.2
07 17.08 ЮВ 4 27 км слаб. ливневой дождь 10/10 1300 м
[]
+7.2 +5.9 91 +4 +4 1014.8 1010.1
08 17.08 Ю 4 21 км в посл. час дождь {ливн. осадки} 9/9 1410 м
[]
+6.9 +5.8 93 +3 +3 1014.4 1009.7
09 17.08 Ю 4 19 км слаб. ливневой дождь 9/0
[]
+6.6 +5.5 93 +3 +3 1014.1 1009.4
10 17.08 ЮВ 5 20 км слаб. ливневой дождь 9/9 1500 м
[]
+7.0 +5.9 93 +3 +3 1013.8 1009.1
11 17.08 Ю 5 10 км слаб. ливневой дождь 9/9 120 м
[]
+6.9 +6.0 94 +3 +3 1013.1 1008.4
12 17.08 Ю 6 12 км {ливн. осадки} 9/0
[]
+7.1 +6.4 95 +3 +4 1012.7 1008.1
13 17.08 Ю 7 11 км в посл. час дождь {ливн. осадки} 9/9 120 м
[]
+7.4 +6.5 94 +3 +3 1012.0 1007.4
14 17.08 Ю 7 16 км в посл. час морось {ливн. осадки, дождь} 9/9 120 м
[]
+7.3 +6.0 91 +3 +3 1011.5 1006.9
15 17.08 Ю 6
{10}
20 км слаб. ливневой дождь 9/9 1230 м
[]
+7.9 +5.9 87 +4 +4 1010.9 1006.3
16 17.08 Ю 7 20 км осадки {ливн. осадки} 10/10 1300 м
[]
+8.3 +5.7 84 +4 +4 1009.9 1005.3
17 17.08 Ю 5 20 км морось {ливн. осадки, дождь} 9/9 1260 м
[]
+8.5 +5.3 80 +5 +5 1009.4 1004.8
18 17.08 Ю 7-12
{10}
10 км слаб. дождь {морось} 9/9 1300 м
[]
+8.0 +6.0 87 +3 +4 1008.8 1004.2 +6.3 +8.5
19 17.08 ЮВ 4 8000 м слаб. дождь 10/10 1260 м
[]
+8.1 +6.7 91 +5 +5 1008.2 1003.6
20 17.08 ЮВ 6 9000 м слаб. дождь 10/10 1140 м
[]
+8.3 +6.5 88 +4 +4 1007.4 1002.8
21 17.08 Ю 6 6000 м дождь 10/10 1200 м
[]
+7.7 +6.4 91 +3 +3 1007.3 1002.7
22 17.08 ЮВ 8 11 км слаб. дождь 10/10 1500 м
[]
+8.4 +6.8 90 +4 +4 1006.2 1001.6
23 17.08 ЮВ 7 8000 м слаб. дождь 10/10 1350 м
[]
+9.9 +7.1 83 +6 +6 1005.3 1000.7
00 18.08 ЮЗ 6 4500 м ливневой дождь 9/9 800 м
[]
+7.6 +6.9 95 +3 +3 1005.6 1001.0
01 18.08 Ю 3 6000 м дождь {ливн. осадки} 9/9 240 м
[]
+7.6 +6.9 95 +5 +5 1005.8 1001.2
02 18.08 ЮЗ 1 5000 м дождь {ливн. осадки} 9/9 120 м
[]
+7.4 +7.0 97 +7 +7 1005.5 1000.9
03 18.08 Ю 1 3300 м дождь {ливн. осадки} 9/9 300 м
[]
+7.6 +7.2 97 +8 +8 1005.0 1000.4
04 18.08 З 3 100 м слаб. дождь 9/9 150 м
[]
+6.7 +6.5 99 +3 +3 1004.6 1000.0
05 18.08 СЗ 2 200 м слаб. ливневой дождь 10/10 210 м
[]
+6.7 +6.7 100 +5 +5 1004.4 999.8
06 18.08 СЗ 3 400 м слаб. дождь 10/10 240 м
[]
+6.8 +6.8 100 +4 +4 1004.3 999.7 +6.4 +10.7
07 18.08 штиль 0 300 м слаб. дождь 10/10 240 м
[]
+7.0 +7.0 100 +6 +6 1004.8 1000.2
08 18.08 Ю 3 400 м слаб. ливневой дождь 10/10 90 м
[]
+6.8 +6.8 100 +3 +3 1005.1 1000.5
09 18.08 Ю 3 100 м слаб. ливневой дождь 9/9 60 м
[]
+6.6 +6.4 99 +3 +3 1005.6 1001.0
10 18.08 Ю 2 200 м слаб. ливневой дождь 10/10 90 м
[]
+6.9 +6.7 99 +4 +4 1006.2 1001.6
11 18.08 ЮЗ 3 500 м слаб. дождь 10/10 60 м
[]
+7.1 +6.9 99 +4 +4 1007.0 1002.4
12 18.08 Ю 3 1200 м слаб. дождь 10/10 60 м
[]
+7.2 +7.0 99 +4 +4 1007.6 1003.0
13 18.08 Ю 2 400 м туман {ливн. осадки, дождь} 9/9 60 м
[]
+7.8 +7.7 99 +5 +6 1008.2 1003.6
14 18.08 Ю 4 13 км слаб. ливневой дождь 9/9 90 м
[]
+8.2 +7.8 97 +5 +6 1008.4 1003.8
15 18.08 Ю 3 700 м слаб. ливневой дождь 10/10 60 м
[]
+8.2 +7.8 97 +5 +5 1008.7 1004.1
16 18.08 Ю 4 2900 м в посл. час морось {ливн. осадки, дождь} 10/10 120 м
[]
+8.1 +7.5 96 +5 +5 1008.9 1004.3
17 18.08 ЮВ 4 25 км слаб. ливневой дождь 9/9 120 м
[]
+8.2 +7.1 93 +5 +5 1009.2 1004.6
18 18.08 ЮВ 4 35 км {ливн. осадки} 9/9 150 м
[]
+8.3 +7.2 93 +5 +6 1009.4 1004.8 +6.6 +8.4
19 18.08 Ю 3 45 км 9/9 180 м
[]
+8.9 +7.3 90 +6 +7 1009.7 1005.1
20 18.08 Ю 3 50 км 10/10 930 м
[]
+8.8 +6.8 87 +7 +7 1010.1 1005.5
21 18.08 Ю 3 40 км 10/10 1320 м
[]
+8.8 +6.8 87 +7 +7 1010.1 1005.5
22 18.08 Ю 2 12 км слаб. дождь {морось} 10/10 1050 м
[]
+8.3 +7.0 92 +6 +6 1010.3 1005.7
23 18.08 Ю 2 12 км слаб. дождь {морось} 9/9 700 м
[]
+7.6 +7.0 96 +5 +5 1010.4 1005.8
00 19.08 Ю 2 200 м туман {ливн. осадки, дождь} 10/10 60 м
[]
+7.4 +7.0 97 +6 +6 1010.8 1006.2
01 19.08 Ю 1 100 м туман 10/10 90 м
[]
+7.2 +7.0 99 +7 +7 1010.8 1006.2
02 19.08 штиль 0 200 м туман 10/10 60 м
[]
+7.2 +7.0 99 +6 +6 1010.9 1006.3
03 19.08 З 2 100 м туман ?/? +7.0 +6.8 99 +5 +5 1010.7 1006.1

 

Местоположение метеостанции Paamiut (Гренландия): широта 62.00 долгота -49.66 высота над уровнем моря 15 м.

В архиве по умолчанию представлена погода в Paamiut за последнюю неделю. Архивные данные за месяц целиком и за предыдущие месяцы, начиная с января 2011 года, Вы можете получить, выбрав интересующий диапазон дат из раскрывающегося списка и нажав кнопку "Ввод!".


*Определитесь, кто Вы:
робот инопланетянин человек

Внимание! Время в таблицах - всемирное. Для получения местного времени необходимо прибавить поправку, которая равна -3 ч.

Смотрите также архив погоды в соседних городах и на ближайших метеорологических станциях:

Погода в Ukiivik (Гренландия) (74 км)
Погода в Nunarsuit (Гренландия) (152 км)
Погода в Qaqortoq (Гренландия) (239 км)
Погода в Narsarsuaq (Гренландия) (244 км)
Погода в Nuuk (Гренландия) (263 км)
Погода в Mittarfik Nuuk (Гренландия) (265 км)
Погода в Angisoq (Гренландия) (329 км)
Погода в Sioralik (Гренландия) (365 км)
Погода в Ikermiuarsuk (Гренландия) (397 км)
Погода в Prins Christian Sun (Гренландия) (412 км)

Пояснения к столбцам:

Ветер - указаны скорость ветра в м/с - средняя за 10 мин, порывы в срок и между сроками (в фигурных скобках) и направление, откуда дует ветер: С - северный, СВ - северо-восточный, В - восточный, ЮВ - юго-восточный, Ю - южный, ЮЗ - юго-западный, З - западный, СЗ - северо-западный.
Видимость - горизонтальная дальность видимости в метрах или километрах. При видимости от 1 до 10 км при отсутствии осадков обычно наблюдается дымка, при ухудшении видимости до 1 км и менее - туман. В сухую погоду видимость может ухудшаться дымом, пылью или мглою.
Явления - указаны атмосферные явления, наблюдавшиеся в срок или в последний час перед сроком; фигурными скобками обозначены явления, наблюдавшиеся между сроками (за 1-3 часа до срока); квадратными скобками обозначены град или гололедные отложения с указанием их диаметра в мм.
Облачность - указаны через наклонную черту общая и нижняя облачность в баллах и высота нижней границы облаков в метрах; квадратными скобками обозначены формы облаков: Ci - перистые, Cs - перисто-слоистые, Cc - перисто-кучевые, Ac - высококучевые, As - высокослоистые, Sc - слоисто-кучевые, Ns - слоисто-дождевые, Cu - кучевые, Cb - кучево-дождевые. Подробнее классификацию облаков см. в Атласе облаков (PDF).
T - Температура воздуха - температура, измеренная на высоте 2 м над землей.
Td - Температура точки росы - температура, при понижении до которой содержащийся в воздухе водяной пар достигнет насыщения.
f - Относительная влажность воздуха - влажноcть воздуха, измеренная на высоте 2 м над землей.
Te - Эффективная температура - температура, которую ощущает одетый по сезону человек в тени. Характеристика душности погоды. При расчете учитывается влияние влажности воздуха и скорости ветра на теплоощущения человека.
Tes - Эффективная температура на солнце - температура, которую ощущает человек, с поправкой на солнечный нагрев. Характеристика знойности погоды. Зависит от высоты солнца над горизонтом, облачности и скорости ветра. Ночью, в пасмурную погоду, а также при ветре 12 м/с и более поправка равна нулю.
P - Атмосферное давление - приведенное к уровню моря атмосферное давление.
Po - Атмосферное давление - измеренное на уровне метеостанции атмосферное давление.
Tmin - Минимальная температура - минимум температуры воздуха на высоте 2 м над землей.
Tmax - Максимальная температура - максимум температуры воздуха на высоте 2 м над землей.
R - Количество осадков - Количество выпавших осадков за период времени, мм. При наведении курсора мыши на число - период времени, за который выпало указанное количество осадков.
R24 - Количество осадков - Количество выпавших осадков за 24 часа, мм.
S - Снежный покров - Высота снежного покрова, см. При наведении курсора мыши на число - состояние снежного покрова и степень покрытия местности в баллах.